FENGYUN 2F

Last updated on Nov. 29, 2020, 6:16 a.m. UTC

1 38049U 12002A   20333.60040382 -.00000340  00000-0  00000-0 0  9991
2 38049   2.4411  83.0717 0002964  12.1491 301.0022  1.00281535 32562
UTC
Height (km)
Latitude
Longitude
Inclination
Orbital Period
UTC large
Height (km)
Speed (km/s)
/
Latitude / Longitude
Inclination (degrees)
Orbital Period (minutes)
Azimuth
Elevation
Range (km)
Doppler Factor
iOS Compass Heading
iOS Angle

Next 30 passes for location: Hong Kong

Rise time Rise Azimuth (degrees) Set time Set Azimuth (degrees) Duration Max altitude (degrees)

No matching passes for this satellites